sat.trackr.live / text

‹ back to catalog

STARLINK-37617

NORAD 69314 · 2026-119U

PAYLOAD ACTIVE UNKNOWN

§ Identity

Operator
Country
US
Launch date
2026-05-30
Launch site
AFWTR
Launch vehicle
Mass (kg)
RCS (m²)

Purposes: comms

External: N2YO · Heavens-Above · Gunter

§ Orbital elements

Epoch: 2026-09-19T12:04:00.012288Z

Period
93.91 min
Inclination
97.2850°
Eccentricity
0.0000188
Mean motion
15.33455938 rev/d
Perigee alt
465.4 km
Apogee alt
465.6 km
Semi-major
6,843.6 km
B*
3.8732e-4
RAAN
287.2997°
Arg perigee
97.8801°
Mean anomaly
262.2463°
Rev number
1,851

§ Raw data

STARLINK-376171 69314U 26119U   26262.50277792  .00012454  00000+0  38732-3 0  99902 69314  97.2850 287.2997 0000188  97.8801 262.2463 15.33455938 18516

JSON: /api/v1/satellites/69314 · /tle

For live sub-satellite position, see the globe view (requires WebGL).

§ Visibility from observer

Set your observer location to see the next 7 days of passes ≥ 10°. The values pass through the URL so the page stays shareable.

No JS? Fill the form by hand. The geolocation button needs JavaScript.